Date,TemperatureHighF,TemperatureAvgF,TemperatureLowF,DewpointHighF,DewpointAvgF,DewpointLowF,HumidityHigh,HumidityAvg,HumidityLow,PressureMaxIn,PressureMinIn,WindSpeedMaxMPH,WindSpeedAvgMPH,GustSpeedMaxMPH,PrecipitationSumIn
2013-1-1,38,36,34,29,28,19,80,70,54,30.02,29.89,9,4,30,0.00
2013-1-2,35,30,22,27,18,13,76,63,43,30.21,29.97,10,4,26,0.00
2013-1-3,24,20,17,15,14,12,81,75,68,30.20,30.17,1,0,6,0.00
2013-1-4,33,30,28,22,20,18,68,64,59,30.20,30.15,13,8,38,0.00
2013-1-5,45,34,27,24,20,17,71,58,32,30.34,30.18,14,4,29,0.00
2013-1-6,42,38,32,31,27,23,77,64,54,30.17,29.98,8,4,26,0.00
2013-1-7,40,32,24,29,25,22,90,75,56,30.43,30.06,8,2,26,0.00
2013-1-8,52,34,22,32,25,20,94,73,33,30.40,30.30,3,0,10,0.00
2013-1-9,56,41,27,46,34,25,91,76,60,30.41,30.21,10,3,29,0.00
2013-1-10,53,44,35,34,30,26,76,60,40,30.56,30.36,8,2,22,0.00
2013-1-11,45,39,34,41,35,29,100,84,66,30.44,30.06,4,1,11,0.00
2013-1-12,68,49,39,54,45,39,100,89,57,30.12,30.01,6,1,14,0.00
2013-1-13,65,53,43,56,50,43,100,91,69,30.04,29.89,3,1,10,0.00
2013-1-15,36,35,33,36,34,32,99,98,95,30.32,30.18,4,1,11,0.00
2013-1-16,43,36,32,41,34,31,100,94,67,30.17,29.80,8,2,21,0.00
2013-1-17,43,37,33,31,26,20,86,67,46,30.11,29.95,10,3,22,0.00
2013-1-18,39,32,26,24,14,4,68,49,24,30.46,30.07,8,3,30,0.00
2013-1-19,56,42,26,23,17,13,70,41,19,30.40,29.87,16,5,30,0.00
2013-1-20,48,43,33,30,19,3,57,38,20,30.03,29.76,13,7,44,0.00
2013-1-21,41,32,28,16,10,5,59,41,26,30.05,29.79,16,3,32,0.00
2013-1-22,24,14,8,15,-2,-8,66,49,34,30.28,29.94,11,5,30,0.00
2013-1-23,22,16,10,10,-2,-5,68,46,31,30.32,30.15,8,4,24,0.00
2013-1-24,23,16,8,14,7,-2,90,68,39,30.55,30.04,7,2,22,0.00
2013-1-25,23,14,7,20,9,1,90,80,65,30.54,30.04,4,1,11,0.00
2013-1-26,30,27,25,22,19,13,84,71,64,30.25,30.00,7,3,30,0.00
2013-1-28,53,35,28,50,33,21,100,92,72,30.39,30.03,7,1,19,0.00
2013-1-29,72,56,48,58,51,48,100,84,51,30.06,29.85,9,3,27,0.00
2013-1-30,69,57,49,58,53,46,100,88,69,29.90,29.19,18,4,40,0.00
2013-1-31,54,32,26,48,23,12,87,67,54,29.85,29.17,15,9,43,0.00
2013-2-1,28,18,13,23,6,0,88,61,51,30.37,29.79,10,6,32,0.00
2013-2-2,30,21,9,26,14,1,96,75,51,30.37,29.96,8,1,21,0.00
2013-2-3,33,28,22,24,20,12,95,71,56,29.99,29.77,10,3,29,0.00
2013-2-4,37,28,22,30,19,10,98,69,44,30.04,29.83,7,3,31,0.00
2013-2-5,42,36,30,36,33,28,99,88,73,29.90,29.78,10,2,32,0.00
2013-2-6,38,33,25,35,27,22,97,77,66,30.31,29.86,7,3,21,0.00
2013-2-7,29,26,24,24,23,22,92,89,79,30.37,30.29,2,0,7,0.00
2013-2-8,-200,0,200,-100,-100,-100,0,0,100,29.88,29.84,0,0,0,0.00
2013-3-11,52,51,50,47,46,45,85,83,80,29.89,29.83,2,1,4,0.00
2013-3-12,52,43,38,50,35,26,96,73,62,30.04,29.76,13,6,22,0.11
2013-3-13,42,34,27,33,25,19,94,70,49,30.16,29.96,12,5,27,0.02
2013-3-14,40,32,26,23,18,15,73,57,42,30.26,30.15,12,5,35,0.00
2013-3-15,54,42,29,34,26,16,68,54,43,30.19,29.85,10,4,20,0.00
2013-3-16,59,47,41,51,41,34,95,80,64,29.90,29.63,10,4,21,0.05
2013-3-17,46,38,32,41,32,27,95,80,72,30.25,29.90,9,3,16,0.00
2013-3-18,34,32,30,32,30,28,97,94,88,30.27,29.90,5,2,10,0.16
2013-3-19,50,40,31,36,24,8,99,59,21,30.02,29.80,18,7,37,0.40
2013-3-20,46,37,30,30,17,10,87,46,28,30.02,29.82,12,6,31,0.00
2013-3-21,30,26,22,23,14,10,79,61,46,30.00,29.86,10,4,21,0.00
2013-3-22,25,25,25,15,13,12,64,61,58,30.00,29.99,7,5,18,0.00
2013-3-23,50,38,24,23,20,16,78,50,28,30.08,29.98,7,3,18,0.00
2013-3-24,40,32,27,30,26,21,96,80,49,30.03,29.65,6,2,10,0.00
2013-3-25,38,33,29,33,29,26,97,88,71,29.77,29.56,8,2,15,0.46
2013-3-26,44,37,34,31,28,26,87,70,50,30.11,29.77,8,4,20,0.21
2013-3-27,42,37,33,32,28,23,84,69,57,30.21,30.08,9,5,28,0.00
2013-3-28,44,39,34,32,28,25,77,64,56,30.30,30.16,10,4,23,0.00
2013-3-29,53,43,36,32,28,24,75,55,35,30.31,30.20,7,2,24,0.00
2013-3-30,57,44,29,34,27,18,88,55,26,30.28,30.11,6,2,14,0.00
2013-3-31,49,41,36,45,37,26,98,85,60,30.11,29.79,7,1,12,0.26
2013-4-1,53,45,36,41,33,16,86,64,39,30.02,29.79,10,4,27,0.00
2013-4-2,44,36,30,19,15,10,58,41,27,30.23,30.02,9,4,23,0.00
2013-4-3,47,36,26,20,15,11,69,46,25,30.43,30.23,10,4,21,0.00
2013-4-4,51,36,22,32,19,12,80,53,27,30.43,30.07,8,3,14,0.00
2013-4-5,61,47,35,36,30,23,91,55,26,30.12,29.92,10,3,24,0.00
2013-4-6,60,44,28,24,20,13,71,42,18,30.33,30.13,6,2,19,0.12
2013-4-7,72,56,44,43,34,23,59,44,31,30.19,29.94,10,3,21,0.00
2013-4-8,78,64,46,48,44,41,82,52,30,30.09,29.91,10,3,20,0.00
2013-4-9,85,71,60,54,50,47,64,49,31,30.09,29.92,8,4,22,0.00
2013-4-10,88,74,60,58,52,48,69,48,29,29.97,29.79,12,5,22,0.00
2013-4-11,84,69,54,58,53,50,89,59,35,29.88,29.65,7,3,19,0.00
2013-4-12,73,62,49,63,50,34,98,69,37,29.82,29.57,15,5,30,0.90
2013-4-13,65,54,44,39,32,23,64,47,24,29.99,29.81,14,6,25,0.00
2013-4-14,68,54,39,44,37,31,80,56,36,30.16,29.99,6,3,13,0.00
2013-4-15,62,56,49,52,48,41,94,76,59,30.22,30.09,8,3,21,0.06
2013-4-16,80,67,56,60,56,51,89,70,46,30.23,30.05,9,4,16,0.11
2013-4-17,76,65,55,62,59,54,99,81,59,30.19,30.10,7,3,23,0.01
2013-4-18,77,67,59,63,58,54,92,75,56,30.16,29.90,14,4,28,0.00
2013-4-19,73,62,46,62,53,35,89,73,62,29.90,29.55,15,6,29,0.59
2013-4-20,54,46,38,35,28,22,64,50,32,30.40,29.83,10,6,25,0.00
2013-4-21,54,41,29,32,26,23,85,58,32,30.61,30.40,5,2,15,0.00
2013-4-22,58,45,30,34,29,21,86,57,28,30.56,30.37,9,3,16,0.00
2013-4-23,68,49,32,45,38,30,93,68,32,30.39,30.09,5,2,10,0.00
2013-4-24,46,44,42,41,40,40,90,86,82,30.10,30.04,1,0,3,0.00
2013-4-25,64,50,39,36,30,18,71,49,20,30.35,30.12,7,4,22,0.00
2013-4-26,65,52,38,38,35,30,87,55,32,30.48,30.34,5,2,10,0.00
2013-4-27,45,42,39,35,34,33,81,72,63,30.41,30.39,2,1,4,0.00
2013-4-28,52,52,52,48,47,47,86,85,82,30.12,30.09,5,2,9,0.28
2013-4-29,65,56,47,57,52,46,98,89,72,30.10,30.00,5,2,10,0.05
2013-4-30,64,57,52,56,53,50,97,87,68,30.28,30.08,7,3,13,0.00
2013-5-1,72,59,50,54,46,33,97,67,25,30.39,30.27,7,2,13,0.00
2013-5-2,72,55,40,48,41,34,90,62,28,30.41,30.29,7,3,15,0.00
2013-5-3,69,54,40,49,43,39,98,69,42,30.35,30.24,9,3,17,0.00
2013-5-4,67,53,37,48,40,32,92,64,41,30.30,30.15,10,3,19,0.00
2013-5-5,68,54,38,43,39,35,94,62,30,30.21,30.08,8,4,18,0.00
2013-5-6,57,52,47,54,48,41,97,88,69,30.16,30.03,7,4,15,0.02
2013-5-7,59,56,52,58,55,52,99,98,94,30.03,29.93,9,4,15,1.64
2013-5-8,65,55,51,58,53,51,100,92,68,30.02,29.92,6,1,12,0.57
2013-5-9,76,60,49,58,52,48,100,79,38,30.04,29.93,6,2,20,0.07
2013-5-10,80,61,51,66,57,50,98,87,48,30.04,29.86,10,1,19,0.25
2013-5-11,71,62,58,63,57,48,99,83,58,29.86,29.76,7,3,26,0.14
2013-5-12,57,51,40,48,35,26,80,57,36,30.07,29.80,9,4,24,0.00
2013-5-13,54,45,34,37,30,22,91,57,34,30.22,30.05,8,3,20,0.00
2013-5-14,65,48,29,48,37,28,97,71,32,30.25,30.03,4,1,10,0.01
2013-5-15,89,68,43,62,50,42,97,61,29,30.03,29.75,10,3,25,0.00
2013-5-16,78,69,60,61,56,50,93,64,38,29.97,29.79,8,4,34,0.05
2013-5-17,83,67,52,61,56,46,99,71,28,30.12,29.96,7,1,14,0.00
2013-5-18,71,63,56,64,58,53,94,84,69,30.17,30.09,4,1,9,0.00
2013-5-19,65,61,58,63,59,58,98,96,89,30.17,30.06,4,1,9,0.01
2013-5-20,84,69,57,70,63,57,100,85,53,30.11,29.96,5,1,12,0.00
2013-5-21,88,72,58,70,63,58,100,77,41,30.00,29.83,4,1,9,0.00
2013-5-22,86,71,62,66,63,58,98,78,46,29.91,29.84,5,1,13,0.16
2013-5-23,80,68,61,69,61,55,100,80,56,29.87,29.74,10,2,24,0.01
2013-5-24,65,51,41,56,41,30,87,67,50,30.26,29.79,8,4,24,0.00
2013-5-25,61,49,35,41,35,30,85,59,40,30.31,30.22,7,3,22,0.00
2013-5-26,70,54,36,40,34,24,92,53,22,30.29,30.20,6,2,16,0.00
2013-5-27,61,52,38,53,45,36,95,79,54,30.32,30.20,2,0,5,0.01
2013-5-28,85,65,50,65,56,50,98,76,37,30.22,30.04,7,1,17,0.00
2013-5-29,88,72,57,64,59,56,97,66,35,30.13,30.06,7,2,19,0.00
2013-5-30,90,73,58,71,62,56,96,71,37,30.20,30.08,3,0,12,0.00
2013-5-31,90,74,56,65,59,55,99,66,34,30.15,29.98,3,1,13,0.00
2013-6-1,89,74,62,72,65,60,95,75,44,30.03,29.87,3,1,15,0.04
2013-6-2,81,70,62,68,64,61,98,83,61,29.89,29.82,6,2,18,0.06
2013-6-3,77,66,57,66,60,53,100,84,55,30.02,29.85,5,1,11,0.02
2013-6-4,57,51,47,53,49,46,98,94,88,30.13,30.02,3,1,6,0.00
2013-6-5,79,64,47,61,55,46,97,74,51,30.17,30.00,4,1,10,0.00
2013-6-6,66,63,62,63,61,59,99,92,83,30.01,29.84,2,0,9,0.68
2013-6-7,69,64,62,67,63,59,100,96,87,29.84,29.68,4,1,13,0.07
2013-6-8,81,67,58,64,59,55,94,77,43,30.11,29.81,5,1,14,0.00
2013-6-9,78,67,56,68,62,56,99,86,68,30.18,30.06,4,1,9,0.00
2013-6-10,75,68,61,72,66,60,100,95,77,30.08,29.79,6,0,16,0.55
2013-6-11,76,70,61,66,62,60,99,77,64,29.90,29.81,7,3,20,0.01
2013-6-12,86,76,64,70,66,62,92,72,47,29.90,29.78,4,1,15,0.00
2013-6-13,77,67,62,70,63,55,100,88,71,29.81,29.53,8,3,22,1.29
2013-6-14,76,66,59,60,55,52,85,70,50,30.04,29.71,6,3,24,0.00
2013-6-15,81,66,51,60,54,47,100,70,31,30.12,30.01,4,1,10,0.00
2013-6-16,78,68,59,65,60,56,92,79,60,30.06,29.90,10,2,28,0.00
2013-6-17,86,75,67,68,64,61,90,70,46,29.96,29.87,5,2,15,0.00
2013-6-18,74,67,63,69,64,61,98,91,72,29.92,29.82,3,1,9,0.13
2013-6-19,76,66,61,64,62,60,99,87,60,30.14,29.91,5,1,10,0.00
2013-6-20,83,70,57,68,63,57,100,82,48,30.23,30.14,2,0,10,0.21
2013-6-21,84,70,59,70,64,59,100,83,50,30.26,30.17,3,0,8,0.00
2013-6-22,87,73,60,71,65,59,99,78,48,30.22,30.09,4,0,8,0.00
2013-6-23,87,72,60,72,65,59,100,82,47,30.18,30.06,4,0,13,0.09
2013-6-24,86,72,62,74,68,61,100,86,57,30.15,30.03,3,0,11,0.05
2013-6-25,90,76,64,72,67,62,100,76,42,30.07,29.90,2,0,13,0.01
2013-6-26,83,73,66,71,67,64,96,85,60,29.92,29.83,4,0,16,0.03
2013-6-27,79,71,62,72,67,62,100,88,72,29.84,29.66,4,1,8,0.35
2013-6-28,83,72,62,70,65,61,97,81,58,29.63,29.51,5,1,24,0.20
2013-6-29,84,71,60,66,62,58,98,76,45,29.70,29.54,5,0,14,0.01
2013-6-30,84,70,60,72,65,59,99,86,55,29.84,29.70,4,0,12,1.07
2013-7-1,83,72,66,72,68,66,100,89,63,29.93,29.82,1,0,9,0.04
2013-7-2,80,73,66,71,68,65,100,85,69,30.10,29.93,6,0,15,0.00
2013-7-3,85,74,66,74,69,65,99,84,65,30.19,30.09,4,0,18,0.01
2013-7-4,88,76,67,75,69,66,100,80,53,30.22,30.11,2,0,17,0.01
2013-7-5,88,77,66,73,69,65,99,78,54,30.18,30.08,2,0,21,0.00
2013-7-6,92,77,65,74,68,65,100,77,43,30.19,30.02,3,0,6,0.00
2013-7-7,87,74,66,74,68,65,98,81,60,30.10,29.99,2,0,18,0.02
2013-7-8,85,73,64,68,65,62,99,77,52,30.13,30.05,2,0,6,0.00
2013-7-9,84,74,68,74,68,65,95,82,57,30.11,30.00,2,0,11,0.00
2013-7-10,86,75,67,77,70,66,98,86,67,30.03,29.84,3,0,17,0.28
2013-7-11,81,71,64,71,67,62,99,89,69,29.98,29.86,4,0,10,1.31
2013-7-12,70,65,61,66,64,60,100,97,84,30.10,29.95,4,0,8,0.44
2013-7-13,82,72,64,72,68,64,100,89,67,30.24,30.09,3,0,6,0.01
2013-7-14,87,76,66,73,69,66,100,83,55,30.31,30.24,1,0,13,0.08
2013-7-15,90,76,63,76,69,63,100,82,51,30.33,30.22,2,0,7,0.00
2013-7-16,90,77,65,79,71,65,100,85,63,30.29,30.18,1,0,10,0.00
2013-7-17,90,78,68,78,73,68,100,84,56,30.26,30.11,1,0,9,0.00
2013-7-18,91,78,69,79,73,68,100,86,61,30.15,30.02,2,0,19,0.05
2013-7-19,93,75,68,79,71,68,100,88,51,30.04,29.89,11,1,28,0.19
2013-7-20,89,78,68,74,70,63,100,78,55,29.93,29.80,6,2,17,0.00
2013-7-21,83,72,65,73,68,63,99,87,62,29.95,29.89,5,1,8,0.04
2013-7-22,85,74,68,75,71,68,100,92,65,29.95,29.76,5,1,11,0.14
2013-7-23,84,74,66,72,68,64,100,83,55,29.77,29.68,4,0,15,0.06
2013-7-24,79,69,59,67,63,56,99,81,58,29.96,29.70,7,2,16,0.04
2013-7-25,77,65,56,62,58,54,97,78,54,30.08,29.95,5,1,9,0.00
2013-7-26,81,66,51,65,58,51,100,79,47,30.12,30.01,2,0,10,0.00
2013-7-27,73,66,58,69,64,58,100,95,80,30.03,29.90,4,0,8,0.08
2013-7-28,83,70,60,68,62,56,100,81,45,30.03,29.86,2,0,16,0.03
2013-7-29,78,64,51,60,54,50,99,72,42,30.20,30.04,3,0,20,0.00
2013-7-30,80,67,54,65,59,53,98,78,51,30.25,30.15,4,0,7,0.00
2013-7-31,78,65,57,67,62,57,99,90,62,30.16,29.99,2,0,6,0.04
2013-8-1,83,70,62,69,65,61,100,85,54,29.99,29.84,1,0,16,0.01
2013-8-2,84,70,58,64,59,54,100,72,38,29.99,29.91,4,0,17,0.00
2013-8-3,74,69,61,68,63,59,99,83,67,29.98,29.93,0,0,16,0.34
2013-8-4,77,66,56,65,58,50,100,79,40,30.08,29.97,2,0,21,0.00
2013-8-5,78,65,51,60,56,50,100,75,48,30.14,30.01,3,0,8,0.00
2013-8-6,81,69,56,68,62,55,100,80,56,30.04,29.99,1,0,11,0.06
2013-8-7,87,72,63,74,68,62,100,89,58,30.03,29.93,4,0,15,0.19
2013-8-8,81,72,67,76,70,67,100,96,77,30.00,29.94,1,0,8,0.44
2013-8-9,80,73,69,74,71,69,100,93,73,29.99,29.90,0,0,17,0.14
2013-8-10,82,72,64,72,68,61,100,88,65,30.09,29.98,1,0,8,0.04
2013-8-11,83,72,63,73,67,61,97,84,64,30.11,29.99,1,0,7,0.00
2013-8-12,87,74,65,72,67,62,99,79,45,30.04,29.89,0,0,5,0.00
2013-8-13,83,71,65,71,66,59,100,88,53,29.89,29.76,0,0,16,1.00
2013-8-14,69,60,49,59,52,47,97,75,51,30.16,29.88,5,1,15,0.01
2013-8-15,75,60,47,58,52,47,100,80,42,30.23,30.11,2,0,7,0.00
2013-8-16,60,52,49,57,51,48,100,97,90,30.18,30.14,0,0,0,0.00